CW4869 Weather Reports


Display with metric or nautical units.
time (UTC)temp
F
wind
direction
speed
MPH
gust
MPH
rain 1hr
in
rain 24hr
in
rain mn
in
humidity
%
barometer
mb
20260906183103 72 63 2.0 11.0 0.00 0.00 0.00 77 1019.0
20260906182557 72 33 2.0 7.0 0.00 0.00 0.00 79 1019.0
20260906182116 72 11 2.0 6.0 0.00 0.00 0.00 77 1019.1
20260906181526 72 33 2.0 7.0 0.00 0.00 0.00 78 1019.0
20260906181037 73 46 2.0 8.0 0.00 0.00 0.00 77 1019.0
20260906180528 73 37 3.0 8.0 0.00 0.00 0.00 79 1019.0
20260906180042 72 53 3.0 6.0 0.00 0.00 0.00 79 1019.1
20260906175528 72 41 2.0 5.0 0.00 0.00 0.00 78 1019.2
20260906175053 72 46 2.0 5.0 0.00 0.00 0.00 78 1019.2
20260906174541 72 72 2.0 5.0 0.00 0.00 0.00 78 1019.3
20260906174046 73 63 2.0 5.0 0.00 0.00 0.00 77 1019.3
20260906173550 73 46 2.0 5.0 0.00 0.00 0.00 77 1019.4
20260906172532 73 59 2.0 7.0 0.00 0.00 0.00 78 1019.4
20260906172049 73 68 2.0 6.0 0.00 0.00 0.00 77 1019.3
20260906171536 73 20 2.0 6.0 0.00 0.00 0.00 76 1019.4
20260906171024 73 53 2.0 7.0 0.00 0.00 0.00 78 1019.4
20260906170559 73 105 2.0 7.0 0.00 0.00 0.00 78 1019.4
20260906170031 73 11 2.0 6.0 0.00 0.00 0.00 77 1019.4
20260906165537 73 89 2.0 6.0 0.00 0.00 0.00 78 1019.4
20260906165028 72 44 2.0 6.0 0.00 0.00 0.00 80 1019.4
20260906164537 72 51 1.0 6.0 0.00 0.00 0.00 79 1019.4
20260906164028 72 179 2.0 5.0 0.00 0.00 0.00 79 1019.4
20260906163532 72 40 1.0 5.0 0.00 0.00 0.00 78 1019.4
20260906163044 72 135 1.0 5.0 0.00 0.00 0.00 80 1019.4
20260906162533 72 46 2.0 8.0 0.00 0.00 0.00 81 1019.3
20260906162029 72 96 3.0 8.0 0.00 0.00 0.00 80 1019.4
20260906161537 72 344 2.0 7.0 0.00 0.00 0.00 80 1019.4
20260906161055 72 39 1.0 7.0 0.00 0.00 0.00 81 1019.4
20260906160537 72 46 2.0 7.0 0.00 0.00 0.00 81 1019.4
20260906160038 72 269 2.0 9.0 0.00 0.00 0.00 84 1019.5
20260906155528 72 21 2.0 10.0 0.00 0.00 0.00 84 1019.4
20260906155035 71 77 3.0 10.0 0.00 0.00 0.00 83 1019.5
20260906154524 71 314 2.0 7.0 0.00 0.00 0.00 84 1019.4
20260906154035 71 56 2.0 6.0 0.00 0.00 0.00 83 1019.4
20260906153524 71 124 2.0 8.0 0.00 0.00 0.00 84 1019.3
20260906153028 71 59 3.0 8.0 0.00 0.00 0.00 84 1019.3
20260906152538 71 46 2.0 5.0 0.00 0.00 0.00 84 1019.2
20260906152027 72 77 2.0 5.0 0.00 0.00 0.00 85 1019.2
20260906151534 72 145 2.0 6.0 0.00 0.00 0.00 85 1019.1
20260906151039 71 89 1.0 9.0 0.00 0.00 0.00 85 1019.1
20260906150531 71 46 3.0 9.0 0.00 0.00 0.00 86 1019.0
20260906150042 71 56 2.0 11.0 0.00 0.00 0.00 86 1018.9
20260906145534 71 75 4.0 11.0 0.00 0.00 0.00 86 1018.9
20260906145027 71 63 2.0 8.0 0.00 0.00 0.00 86 1018.9
20260906144600 71 89 2.0 8.0 0.00 0.00 0.00 87 1018.9
20260906144026 71 77 3.0 8.0 0.00 0.00 0.00 87 1018.9
20260906143559 71 56 2.0 6.0 0.00 0.00 0.00 87 1018.8
20260906143028 71 72 2.0 6.0 0.00 0.00 0.00 88 1018.8
20260906142534 71 63 2.0 5.0 0.00 0.00 0.00 88 1018.9
20260906142028 71 72 2.0 6.0 0.00 0.00 0.00 88 1018.9
20260906141537 71 39 2.0 6.0 0.00 0.00 0.00 88 1018.8
20260906141030 70 53 2.0 6.0 0.00 0.00 0.00 89 1018.8
20260906135545 70 135 1.0 5.0 0.00 0.00 0.00 89 1018.8
20260906135102 70 35 2.0 7.0 0.00 0.00 0.00 90 1018.8
20260906134550 70 1 2.0 7.0 0.00 0.00 0.00 90 1018.7
20260906134036 70 77 2.0 6.0 0.00 0.00 0.00 90 1018.7
20260906133524 70 53 2.0 8.0 0.00 0.00 0.00 91 1018.7
20260906132532 69 46 3.0 8.0 0.00 0.00 0.00 91 1018.7
20260906132027 69 49 2.0 7.0 0.00 0.00 0.00 91 1018.7
20260906131601 69 344 1.0 6.0 0.00 0.00 0.00 91 1018.8
20260906131035 69 68 2.0 6.0 0.00 0.00 0.00 91 1018.8
20260906130524 69 89 2.0 4.0 0.00 0.00 0.00 91 1018.8
20260906130048 68 51 2.0 10.0 0.00 0.00 0.00 91 1018.7
20260906125534 68 51 2.0 10.0 0.00 0.00 0.00 91 1018.7
20260906125047 68 135 2.0 7.0 0.00 0.00 0.00 91 1018.7
20260906124602 68 15 3.0 6.0 0.00 0.00 0.00 91 1018.7
20260906123558 68 117 1.0 6.0 0.00 0.00 0.00 91 1018.7
20260906123028 68 39 2.0 9.0 0.00 0.00 0.00 91 1018.6
20260906122536 68 25 3.0 9.0 0.00 0.00 0.00 91 1018.5
20260906122042 68 63 2.0 9.0 0.00 0.00 0.00 91 1018.5
20260906121531 68 59 3.0 9.0 0.00 0.00 0.00 91 1018.4
20260906121048 68 314 2.0 6.0 0.00 0.00 0.00 90 1018.4
20260906120542 68 30 2.0 6.0 0.00 0.00 0.00 90 1018.4
20260906120032 68 42 2.0 7.0 0.00 0.00 0.00 90 1018.4
20260906115541 68 331 2.0 7.0 0.00 0.00 0.00 90 1018.3
20260906115045 68 340 2.0 7.0 0.00 0.00 0.00 90 1018.3
20260906114601 68 15 2.0 7.0 0.00 0.00 0.00 90 1018.1
20260906114031 68 1 2.0 7.0 0.00 0.00 0.00 90 1018.1
20260906113534 68 28 2.0 7.0 0.00 0.00 0.00 90 1018.1
20260906113046 68 331 1.0 7.0 0.00 0.00 0.00 89 1018.0
20260906112529 68 351 2.0 6.0 0.00 0.00 0.00 89 1017.9
20260906112104 68 342 2.0 7.0 0.00 0.00 0.00 89 1017.8
20260906111615 68 89 1.0 7.0 0.00 0.00 0.00 90 1017.8
20260906111031 68 63 1.0 5.0 0.00 0.00 0.00 90 1017.7
20260906110523 68 46 1.0 5.0 0.00 0.00 0.00 90 1017.7
20260906110032 68 63 2.0 5.0 0.00 0.00 0.00 90 1017.6
20260906105541 68 89 1.0 5.0 0.00 0.00 0.00 89 1017.6
20260906105031 68 39 2.0 4.0 0.00 0.00 0.00 89 1017.5
20260906104522 68 344 1.0 4.0 0.00 0.00 0.00 89 1017.5
20260906104058 68 39 1.0 4.0 0.00 0.00 0.00 89 1017.5
20260906103527 68 314 1.0 7.0 0.00 0.00 0.00 89 1017.5
20260906103038 68 54 2.0 7.0 0.00 0.00 0.00 89 1017.5
20260906102523 68 117 1.0 6.0 0.00 0.00 0.00 89 1017.4
20260906102036 68 72 2.0 6.0 0.00 0.00 0.00 89 1017.3
20260906101523 68 35 2.0 5.0 0.00 0.00 0.00 89 1017.3
20260906101036 68 28 1.0 5.0 0.00 0.00 0.00 90 1017.3
20260906100542 68 23 2.0 6.0 0.00 0.00 0.00 90 1017.3
20260906100035 68 20 2.0 6.0 0.00 0.00 0.00 90 1017.3
20260906095544 68 89 1.0 6.0 0.00 0.00 0.00 90 1017.3
20260906094537 68 89 1.0 6.0 0.00 0.00 0.00 90 1017.3
20260906094027 68 32 2.0 7.0 0.00 0.00 0.00 90 1017.3
20260906093533 68 53 1.0 7.0 0.00 0.00 0.00 90 1017.4
20260906093033 68 39 2.0 6.0 0.00 0.00 0.00 90 1017.3
20260906092542 68 349 1.0 5.0 0.00 0.00 0.00 90 1017.2
20260906092029 68 28 2.0 5.0 0.00 0.00 0.00 89 1017.3
20260906091048 68 32 2.0 6.0 0.00 0.00 0.00 89 1017.2
20260906090532 68 59 2.0 6.0 0.00 0.00 0.00 89 1017.1
20260906090025 68 35 1.0 5.0 0.00 0.00 0.00 89 1017.1
20260906085532 68 56 2.0 6.0 0.00 0.00 0.00 89 1017.1
20260906085026 68 32 2.0 6.0 0.00 0.00 0.00 89 1017.0
20260906084532 68 331 1.0 5.0 0.00 0.00 0.00 89 1017.0
20260906084027 68 72 2.0 5.0 0.00 0.00 0.00 89 1016.9
20260906083600 68 56 1.0 3.0 0.00 0.00 0.00 88 1016.9
20260906083028 68 314 1.0 5.0 0.00 0.00 0.00 88 1016.8
20260906082533 68 117 1.0 4.0 0.00 0.00 0.00 88 1016.9
20260906082101 68 135 2.0 7.0 0.00 0.00 0.00 88 1016.9
20260906081550 68 321 1.0 7.0 0.00 0.00 0.00 87 1016.9
20260906081042 68 20 1.0 5.0 0.00 0.00 0.00 87 1016.9
20260906080532 68 89 1.0 5.0 0.00 0.00 0.00 87 1016.8
20260906080026 68 1 1.0 5.0 0.00 0.00 0.00 87 1016.8
20260906075528 68 1 1.0 6.0 0.00 0.00 0.00 87 1016.8
20260906075039 68 89 1.0 6.0 0.00 0.00 0.00 87 1016.9
20260906074527 68 63 1.0 4.0 0.00 0.00 0.00 87 1016.9
20260906074039 68 18 2.0 5.0 0.00 0.00 0.00 87 1016.8
20260906073609 68 20 2.0 5.0 0.00 0.00 0.00 86 1016.8
20260906073026 69 28 1.0 6.0 0.00 0.00 0.00 86 1016.9
20260906072533 69 314 1.0 6.0 0.00 0.00 0.00 86 1016.9
20260906072041 69 28 1.0 6.0 0.00 0.00 0.00 86 1016.9
20260906071530 69 20 1.0 6.0 0.00 0.00 0.00 86 1016.9
20260906071048 69 72 1.0 5.0 0.00 0.00 0.00 86 1016.8
20260906070536 69 28 2.0 6.0 0.00 0.00 0.00 86 1016.8
20260906070057 69 342 2.0 6.0 0.00 0.00 0.00 86 1016.8
20260906065525 69 343 2.0 5.0 0.00 0.00 0.00 85 1016.8
20260906065037 69 11 1.0 5.0 0.00 0.00 0.00 85 1016.8
20260906064524 69 347 2.0 5.0 0.00 0.00 0.00 85 1016.8
20260906064027 69 18 2.0 6.0 0.00 0.00 0.00 85 1016.8
20260906063536 69 20 1.0 4.0 0.00 0.00 0.00 85 1016.9
20260906063028 69 28 1.0 5.0 0.00 0.00 0.00 84 1017.0
20260906062535 69 46 1.0 5.0 0.00 0.00 0.00 84 1016.9
20260906062047 69 35 1.0 3.0 0.00 0.00 0.00 84 1016.9
20260906061530 69 46 1.0 4.0 0.00 0.00 0.00 83 1016.9
20260906061126 69 46 1.0 5.0 0.00 0.00 0.00 82 1016.8
20260906060600 69 63 1.0 4.0 0.00 0.00 0.00 82 1016.8
20260906060031 69 63 1.0 4.0 0.00 0.00 0.00 82 1016.7
20260906055523 69 46 1.0 4.0 0.00 0.00 0.00 81 1016.6
20260906055101 69 15 1.0 4.0 0.00 0.00 0.00 82 1016.7
20260906054524 69 1 1.0 4.0 0.00 0.00 0.00 82 1016.8
20260906054038 69 35 2.0 4.0 0.00 0.00 0.00 82 1016.8
20260906053547 69 28 1.0 6.0 0.00 0.00 0.00 82 1016.7
20260906053042 69 314 1.0 6.0 0.00 0.00 0.00 82 1016.7
20260906052533 69 15 2.0 6.0 0.00 0.00 0.00 81 1016.6
20260906052027 69 51 1.0 5.0 0.00 0.00 0.00 82 1016.6
20260906051535 69 82 1.0 3.0 0.00 0.00 0.00 81 1016.6
20260906051025 69 117 1.0 6.0 0.00 0.00 0.00 81 1016.6
20260906050535 69 1 1.0 4.0 0.00 0.00 0.00 81 1016.6
20260906050029 69 135 1.0 5.0 0.00 0.00 0.00 81 1016.6
20260906045538 69 46 1.0 6.0 0.00 0.00 0.00 82 1016.6
20260906045052 69 89 1.0 6.0 0.00 0.00 0.00 82 1016.5
20260906044539 69 124 1.0 5.0 0.00 0.00 0.00 82 1016.4
20260906044030 69 338 1.0 5.0 0.00 0.00 0.00 81 1016.3
20260906043556 69 46 2.0 5.0 0.00 0.00 0.00 82 1016.2
20260906043026 69 46 1.0 6.0 0.00 0.00 0.00 81 1016.2
20260906042524 69 39 2.0 6.0 0.00 0.00 0.00 82 1016.2
20260906042031 69 46 2.0 5.0 0.00 0.00 0.00 82 1016.1
20260906041540 69 56 1.0 4.0 0.00 0.00 0.00 82 1016.1
20260906041058 69 39 2.0 5.0 0.00 0.00 0.00 82 1016.1
20260906040522 69 72 2.0 5.0 0.00 0.00 0.00 82 1016.1
20260906040048 69 63 2.0 6.0 0.00 0.00 0.00 82 1016.1
20260906035527 69 314 2.0 6.0 0.00 0.00 0.00 82 1016.0
20260906035039 69 15 1.0 7.0 0.00 0.00 0.00 82 1015.9
20260906034524 69 9 2.0 6.0 0.00 0.00 0.00 82 1015.9
20260906034034 68 105 2.0 6.0 0.00 0.00 0.00 82 1015.9
20260906033548 68 336 2.0 6.0 0.00 0.00 0.00 81 1015.9
20260906033102 68 343 2.0 6.0 0.00 0.00 0.00 81 1015.8
20260906032554 68 82 2.0 8.0 0.00 0.00 0.00 82 1015.8
20260906032029 68 89 2.0 7.0 0.00 0.00 0.00 81 1015.9
20260906031536 68 56 2.0 7.0 0.00 0.00 0.00 81 1015.9
20260906031046 68 40 2.0 6.0 0.00 0.00 0.00 81 1015.9
20260906030534 68 46 1.0 5.0 0.00 0.00 0.00 81 1015.9
20260906030035 69 336 2.0 5.0 0.00 0.00 0.00 81 1016.0
20260906025545 68 74 1.0 5.0 0.00 0.00 0.00 81 1016.0
20260906025035 68 46 1.0 5.0 0.00 0.00 0.00 81 1015.9
20260906024545 69 35 2.0 6.0 0.00 0.00 0.00 81 1015.9
20260906024037 68 329 1.0 6.0 0.00 0.00 0.00 81 1015.9
20260906023524 68 314 2.0 6.0 0.00 0.00 0.00 81 1016.0
20260906023039 68 105 2.0 6.0 0.00 0.00 0.00 81 1016.0
20260906022525 68 1 1.0 5.0 0.00 0.00 0.00 81 1016.0
20260906022035 68 344 2.0 6.0 0.00 0.00 0.00 81 1016.1
20260906021525 69 11 2.0 10.0 0.00 0.00 0.00 81 1016.0
20260906021038 69 30 3.0 10.0 0.00 0.00 0.00 81 1016.0
20260906020523 69 72 2.0 6.0 0.00 0.00 0.00 81 1016.0
20260906020036 68 13 2.0 6.0 0.00 0.00 0.00 81 1015.9
20260906015544 68 98 2.0 7.0 0.00 0.00 0.00 81 1015.8
20260906015032 69 46 2.0 5.0 0.00 0.00 0.00 81 1015.8
20260906014541 69 321 2.0 7.0 0.00 0.00 0.00 82 1015.8
20260906014059 69 15 2.0 7.0 0.00 0.00 0.00 81 1015.8
20260906013545 68 76 3.0 6.0 0.00 0.00 0.00 81 1015.8
20260906013030 68 20 2.0 4.0 0.00 0.00 0.00 81 1015.8
20260906012530 69 135 2.0 4.0 0.00 0.00 0.00 81 1015.8
20260906011522 68 39 2.0 7.0 0.00 0.00 0.00 80 1015.8
20260906011034 69 347 2.0 7.0 0.00 0.00 0.00 81 1015.7
20260906010522 69 1 2.0 7.0 0.00 0.00 0.00 80 1015.8
20260906010055 69 142 3.0 7.0 0.00 0.00 0.00 80 1015.7
20260906005523 69 89 2.0 6.0 0.00 0.00 0.00 81 1015.7
20260906005035 69 59 2.0 6.0 0.00 0.00 0.00 81 1015.6
20260906004522 69 46 3.0 7.0 0.00 0.00 0.00 81 1015.5
20260906004034 69 1 2.0 9.0 0.00 0.00 0.00 81 1015.5
20260906003523 69 15 3.0 9.0 0.00 0.00 0.00 81 1015.4
20260906003037 69 59 2.0 11.0 0.00 0.00 0.00 81 1015.4
20260906002540 69 46 4.0 11.0 0.00 0.00 0.00 81 1015.4
20260906002031 69 40 2.0 7.0 0.00 0.00 0.00 81 1015.5
20260906001522 69 35 3.0 10.0 0.00 0.00 0.00 81 1015.5
20260906001027 69 28 4.0 10.0 0.00 0.00 0.00 81 1015.6
20260906000534 69 59 3.0 7.0 0.00 0.00 0.00 81 1015.7
20260906000026 69 119 3.0 8.0 0.00 0.00 0.00 81 1015.6
20260905235607 69 89 2.0 8.0 0.00 0.00 0.00 81 1015.6
20260905235049 69 340 2.0 6.0 0.00 0.00 0.00 80 1015.5
20260905234538 69 28 2.0 10.0 0.00 0.00 0.00 80 1015.6
20260905234031 69 331 3.0 10.0 0.00 0.00 0.00 80 1015.6
20260905233535 69 60 2.0 8.0 0.00 0.00 0.00 80 1015.6
20260905233028 70 46 2.0 11.0 0.00 0.00 0.00 79 1015.5
20260905232528 70 63 2.0 11.0 0.00 0.00 0.00 79 1015.4
20260905232034 70 49 2.0 9.0 0.00 0.00 0.00 79 1015.4
20260905231524 70 77 3.0 10.0 0.00 0.00 0.00 78 1015.3
20260905231035 70 32 4.0 10.0 0.00 0.00 0.00 78 1015.3
20260905230608 70 46 3.0 9.0 0.00 0.00 0.00 77 1015.3
20260905230025 70 135 3.0 10.0 0.00 0.00 0.00 77 1015.4
20260905225535 70 32 3.0 11.0 0.00 0.00 0.00 77 1015.2
20260905225054 70 75 3.0 11.0 0.00 0.00 0.00 77 1015.2
20260905224528 70 35 3.0 13.0 0.00 0.00 0.00 77 1015.3
20260905224040 71 42 5.0 13.0 0.00 0.00 0.00 77 1015.2
20260905223529 71 46 3.0 10.0 0.00 0.00 0.00 76 1015.2
20260905223040 71 25 5.0 12.0 0.00 0.00 0.00 78 1015.2
20260905222528 71 56 3.0 12.0 0.00 0.00 0.00 78 1015.2
20260905222044 71 63 3.0 11.0 0.00 0.00 0.00 77 1015.3
20260905221527 71 89 4.0 9.0 0.00 0.00 0.00 77 1015.3
20260905221040 71 28 2.0 9.0 0.00 0.00 0.00 76 1015.3
20260905220533 71 72 4.0 9.0 0.00 0.00 0.00 77 1015.3
20260905220040 71 53 3.0 8.0 0.00 0.00 0.00 76 1015.3
20260905215555 72 338 3.0 7.0 0.00 0.00 0.00 75 1015.2
20260905215044 72 108 3.0 9.0 0.00 0.00 0.00 77 1015.1
20260905214529 72 27 2.0 9.0 0.00 0.00 0.00 76 1015.1
20260905214109 72 46 2.0 6.0 0.00 0.00 0.00 76 1015.1
20260905213541 72 70 2.0 9.0 0.00 0.00 0.00 76 1015.1
20260905213104 72 54 2.0 8.0 0.00 0.00 0.00 78 1015.0
20260905212529 72 76 3.0 10.0 0.00 0.00 0.00 78 1015.0
20260905212029 72 28 3.0 10.0 0.00 0.00 0.00 80 1015.1
20260905211535 72 89 4.0 11.0 0.00 0.00 0.00 81 1015.1
20260905211030 72 72 4.0 11.0 0.00 0.00 0.00 81 1015.3
20260905210537 72 49 3.0 10.0 0.00 0.00 0.00 80 1015.3
20260905210030 72 46 3.0 9.0 0.00 0.00 0.00 80 1015.4
20260905205535 72 13 2.0 9.0 0.00 0.00 0.00 81 1015.4
20260905205029 72 37 2.0 7.0 0.00 0.00 0.00 81 1015.4
20260905204537 72 63 4.0 7.0 0.00 0.00 0.00 82 1015.5
20260905204028 72 89 2.0 6.0 0.00 0.00 0.00 82 1015.5
20260905203534 72 108 2.0 7.0 0.00 0.00 0.00 81 1015.5
20260905203039 72 344 2.0 9.0 0.00 0.00 0.00 82 1015.5
20260905202528 72 30 3.0 9.0 0.00 0.00 0.00 81 1015.5
20260905202046 73 32 2.0 6.0 0.00 0.00 0.00 81 1015.5
20260905201531 73 127 2.0 6.0 0.00 0.00 0.00 80 1015.4
20260905201056 73 13 2.0 7.0 0.00 0.00 0.00 81 1015.4
20260905200540 73 348 2.0 7.0 0.00 0.00 0.00 81 1015.4
20260905200032 73 100 3.0 7.0 0.00 0.00 0.00 81 1015.4
20260905195539 73 72 2.0 6.0 0.00 0.00 0.00 81 1015.4
20260905195028 73 46 2.0 9.0 0.00 0.00 0.00 80 1015.4
20260905194532 73 314 3.0 9.0 0.00 0.00 0.00 81 1015.4
20260905194026 73 46 2.0 6.0 0.00 0.00 0.00 82 1015.2
20260905193534 73 61 3.0 6.0 0.00 0.00 0.00 81 1015.2
20260905193041 73 72 3.0 8.0 0.00 0.00 0.00 82 1015.3
20260905192530 73 269 3.0 8.0 0.00 0.00 0.00 82 1015.4
20260905192049 73 39 3.0 7.0 0.00 0.00 0.00 82 1015.3
20260905191537 73 46 3.0 8.0 0.00 0.00 0.00 83 1015.4
20260905191028 73 360 3.0 8.0 0.00 0.00 0.00 83 1015.3
20260905190536 73 344 2.0 8.0 0.00 0.00 0.00 83 1015.4
20260905190046 73 37 3.0 8.0 0.00 0.00 0.00 84 1015.4
20260905185532 73 32 3.0 8.0 0.00 0.00 0.00 84 1015.5
20260905185056 73 20 3.0 8.0 0.00 0.00 0.00 83 1015.5
20260905184524 73 6 2.0 6.0 0.00 0.00 0.00 82 1015.5
20260905184038 73 340 3.0 7.0 0.00 0.00 0.00 81 1015.5
20260905183526 73 13 2.0 7.0 0.00 0.00 0.00 80 1015.3